Time,TemperatureF,DewpointF,PressureIn,WindDirection,WindDirectionDegrees,WindSpeedMPH,WindSpeedGustMPH,Humidity,HourlyPrecipIn,Conditions,Clouds,dailyrainin,SoftwareType,DateUTC
2013-10-12 00:00:00,77.5,73.9,29.85,SE,134,8.0,14.3,89,0.00,,,-99.99,FreeWX 2.04,2013-10-12 05:00:00,
2013-10-12 00:05:00,77.7,74.5,29.85,SE,135,8.0,13.0,90,0.00,,,-99.99,FreeWX 2.04,2013-10-12 05:05:00,
2013-10-12 00:10:00,77.9,74.7,29.85,SE,135,8.0,13.9,90,0.00,,,-99.99,FreeWX 2.04,2013-10-12 05:10:00,
2013-10-12 00:15:00,77.7,74.5,29.85,SE,136,9.0,14.3,90,0.00,,,-99.99,FreeWX 2.04,2013-10-12 05:15:00,
2013-10-12 00:21:00,77.5,73.9,29.85,SE,135,9.0,15.9,89,0.00,,,-99.99,FreeWX 2.04,2013-10-12 05:21:00,
2013-10-12 00:26:00,77.7,74.5,29.85,SE,131,9.0,14.3,90,0.00,,,-99.99,FreeWX 2.04,2013-10-12 05:26:00,
2013-10-12 00:31:00,77.9,74.7,29.85,SE,131,9.0,13.9,90,0.00,,,-99.99,FreeWX 2.04,2013-10-12 05:31:00,
2013-10-12 00:36:00,77.9,74.7,29.85,SE,134,9.0,16.8,90,0.00,,,-99.99,FreeWX 2.04,2013-10-12 05:36:00,
2013-10-12 00:41:00,77.7,74.5,29.85,SE,135,10.0,18.1,90,0.00,,,-99.99,FreeWX 2.04,2013-10-12 05:41:00,
2013-10-12 00:46:00,77.7,74.5,29.85,SE,137,10.0,16.3,90,0.00,,,-99.99,FreeWX 2.04,2013-10-12 05:46:00,
2013-10-12 00:51:00,77.9,74.7,29.85,SE,134,10.0,14.3,90,0.00,,,-99.99,FreeWX 2.04,2013-10-12 05:51:00,
2013-10-12 00:56:00,77.7,74.5,29.85,SE,133,9.0,13.4,90,0.00,,,-99.99,FreeWX 2.04,2013-10-12 05:56:00,
2013-10-12 01:01:00,77.7,74.5,29.85,SE,135,8.0,15.2,90,0.00,,,-99.99,FreeWX 2.04,2013-10-12 06:01:00,
2013-10-12 01:06:00,77.9,74.7,29.85,SE,136,8.0,13.0,90,0.00,,,-99.99,FreeWX 2.04,2013-10-12 06:06:00,
2013-10-12 01:11:00,77.9,74.7,29.85,SE,136,9.0,14.8,90,0.00,,,-99.99,FreeWX 2.04,2013-10-12 06:11:00,
2013-10-12 01:16:00,77.9,74.7,29.85,SE,136,9.0,15.4,90,0.00,,,-99.99,FreeWX 2.04,2013-10-12 06:16:00,
2013-10-12 01:21:00,77.7,74.5,29.85,SE,134,8.0,14.8,90,0.00,,,-99.99,FreeWX 2.04,2013-10-12 06:21:00,
2013-10-12 01:26:00,77.7,74.5,29.85,SE,135,8.0,13.0,90,0.00,,,-99.99,FreeWX 2.04,2013-10-12 06:26:00,
2013-10-12 01:31:00,77.7,74.5,29.85,SE,134,7.0,11.6,90,0.00,,,-99.99,FreeWX 2.04,2013-10-12 06:31:00,
2013-10-12 01:36:00,77.7,74.5,29.85,SE,131,8.0,13.9,90,0.00,,,-99.99,FreeWX 2.04,2013-10-12 06:36:00,
2013-10-12 01:41:00,77.7,74.5,29.85,SE,133,8.0,12.5,90,0.00,,,-99.99,FreeWX 2.04,2013-10-12 06:41:00,
2013-10-12 01:46:00,77.9,74.7,29.85,SE,134,8.0,14.8,90,0.00,,,-99.99,FreeWX 2.04,2013-10-12 06:46:00,
2013-10-12 01:51:00,77.7,74.5,29.85,SE,133,8.0,13.9,90,0.00,,,-99.99,FreeWX 2.04,2013-10-12 06:51:00,
2013-10-12 01:56:00,77.7,74.5,29.85,SE,132,8.0,15.2,90,0.00,,,-99.99,FreeWX 2.04,2013-10-12 06:56:00,
2013-10-12 02:01:00,77.7,74.5,29.85,SE,131,8.0,12.1,90,0.00,,,-99.99,FreeWX 2.04,2013-10-12 07:01:00,
2013-10-12 02:06:00,77.7,74.5,29.85,SE,135,8.0,13.0,90,0.00,,,-99.99,FreeWX 2.04,2013-10-12 07:06:00,
2013-10-12 02:11:00,77.7,74.5,29.85,SE,136,8.0,12.5,90,0.00,,,-99.99,FreeWX 2.04,2013-10-12 07:11:00,
2013-10-12 02:16:00,77.5,74.3,29.85,SE,134,7.0,11.2,90,0.00,,,-99.99,FreeWX 2.04,2013-10-12 07:16:00,
2013-10-12 02:21:00,77.5,74.3,29.85,SE,133,7.0,11.6,90,0.00,,,-99.99,FreeWX 2.04,2013-10-12 07:21:00,
2013-10-12 02:26:00,77.5,74.7,29.85,SE,134,7.0,13.0,91,0.00,,,-99.99,FreeWX 2.04,2013-10-12 07:26:00,
2013-10-12 02:31:00,77.5,74.7,29.85,SE,133,8.0,12.5,91,0.00,,,-99.99,FreeWX 2.04,2013-10-12 07:31:00,
2013-10-12 02:36:00,77.5,74.7,29.85,SE,135,8.0,13.9,91,0.00,,,-99.99,FreeWX 2.04,2013-10-12 07:36:00,
2013-10-12 02:41:00,77.5,74.7,29.85,SE,136,8.0,13.0,91,0.00,,,-99.99,FreeWX 2.04,2013-10-12 07:41:00,
2013-10-12 02:46:00,77.7,74.8,29.85,SE,133,8.0,13.0,91,0.00,,,-99.99,FreeWX 2.04,2013-10-12 07:46:00,
2013-10-12 02:51:00,77.7,74.8,29.85,SE,133,8.0,15.2,91,0.00,,,-99.99,FreeWX 2.04,2013-10-12 07:51:00,
2013-10-12 02:56:00,77.7,74.8,29.85,SE,135,9.0,14.3,91,0.00,,,-99.99,FreeWX 2.04,2013-10-12 07:56:00,
2013-10-12 03:01:00,77.5,74.7,29.85,SE,136,9.0,13.4,91,0.00,,,-99.99,FreeWX 2.04,2013-10-12 08:01:00,
2013-10-12 03:06:00,77.7,74.8,29.85,SE,135,9.0,15.4,91,0.00,,,-99.99,FreeWX 2.04,2013-10-12 08:06:00,
2013-10-12 03:11:00,77.7,74.8,29.85,SE,135,8.0,11.2,91,0.00,,,-99.99,FreeWX 2.04,2013-10-12 08:11:00,
2013-10-12 03:16:00,77.7,74.8,29.85,SE,135,8.0,12.5,91,0.00,,,-99.99,FreeWX 2.04,2013-10-12 08:16:00,
2013-10-12 03:21:00,77.5,74.7,29.85,SE,134,8.0,13.4,91,0.00,,,-99.99,FreeWX 2.04,2013-10-12 08:21:00,
2013-10-12 03:26:00,77.5,74.7,29.85,SE,134,8.0,12.1,91,0.00,,,-99.99,FreeWX 2.04,2013-10-12 08:26:00,
2013-10-12 03:31:00,77.7,74.8,29.85,SE,133,8.0,13.9,91,0.00,,,-99.99,FreeWX 2.04,2013-10-12 08:31:00,
2013-10-12 03:36:00,77.5,74.7,29.85,SE,133,8.0,12.1,91,0.00,,,-99.99,FreeWX 2.04,2013-10-12 08:36:00,
2013-10-12 03:41:00,77.5,74.7,29.85,SE,132,8.0,13.4,91,0.00,,,-99.99,FreeWX 2.04,2013-10-12 08:41:00,
2013-10-12 03:46:00,77.4,74.5,29.85,SE,132,8.0,13.4,91,0.00,,,-99.99,FreeWX 2.04,2013-10-12 08:46:00,
2013-10-12 03:51:00,77.5,74.7,29.85,SE,135,7.0,12.1,91,0.00,,,-99.99,FreeWX 2.04,2013-10-12 08:51:00,
2013-10-12 03:56:00,77.5,74.7,29.85,SE,136,3.0,0.0,91,0.00,,,-99.99,FreeWX 2.04,2013-10-12 08:56:00,
2013-10-12 04:01:00,77.5,74.7,29.85,North,-999,0.0,0.0,91,0.00,,,-99.99,FreeWX 2.04,2013-10-12 09:01:00,
2013-10-12 04:06:00,77.7,74.8,29.85,North,-999,0.0,0.0,91,0.00,,,-99.99,FreeWX 2.04,2013-10-12 09:06:00,
2013-10-12 04:11:00,77.7,74.8,29.85,North,-999,0.0,0.0,91,0.00,,,-99.99,FreeWX 2.04,2013-10-12 09:11:00,
2013-10-12 04:16:00,77.7,74.8,29.85,North,-999,0.0,0.0,91,0.00,,,-99.99,FreeWX 2.04,2013-10-12 09:16:00,
2013-10-12 04:21:00,77.5,74.7,29.85,North,-999,0.0,0.0,91,0.00,,,-99.99,FreeWX 2.04,2013-10-12 09:21:00,
2013-10-12 04:26:00,77.5,74.7,29.85,North,-999,0.0,0.0,91,0.00,,,-99.99,FreeWX 2.04,2013-10-12 09:26:00,
2013-10-12 04:31:00,77.5,74.7,29.85,North,-999,0.0,0.0,91,0.00,,,-99.99,FreeWX 2.04,2013-10-12 09:31:00,
2013-10-12 04:36:00,77.5,74.7,29.85,North,-999,0.0,0.0,91,0.00,,,-99.99,FreeWX 2.04,2013-10-12 09:36:00,
2013-10-12 04:41:00,77.5,74.7,29.85,North,-999,0.0,0.0,91,0.00,,,-99.99,FreeWX 2.04,2013-10-12 09:41:00,
2013-10-12 04:46:00,77.5,74.7,29.85,North,-999,0.0,0.0,91,0.00,,,-99.99,FreeWX 2.04,2013-10-12 09:46:00,
2013-10-12 04:51:00,77.5,74.7,29.85,North,-999,0.0,0.0,91,0.00,,,-99.99,FreeWX 2.04,2013-10-12 09:51:00,
2013-10-12 04:56:00,77.5,74.7,29.85,North,-999,0.0,0.0,91,0.00,,,-99.99,FreeWX 2.04,2013-10-12 09:56:00,
2013-10-12 05:01:00,77.7,74.8,29.85,North,-999,0.0,0.0,91,0.00,,,-99.99,FreeWX 2.04,2013-10-12 10:01:00,
2013-10-12 05:06:00,77.5,74.7,29.85,North,-999,0.0,0.0,91,0.00,,,-99.99,FreeWX 2.04,2013-10-12 10:06:00,
2013-10-12 05:11:00,77.5,74.7,29.85,North,-999,0.0,0.0,91,0.00,,,-99.99,FreeWX 2.04,2013-10-12 10:11:00,
2013-10-12 05:16:00,77.4,74.5,29.85,North,-999,0.0,0.0,91,0.00,,,-99.99,FreeWX 2.04,2013-10-12 10:16:00,
2013-10-12 05:21:00,77.4,74.5,29.85,North,-999,0.0,0.0,91,0.00,,,-99.99,FreeWX 2.04,2013-10-12 10:21:00,
2013-10-12 05:26:00,77.4,74.5,29.85,North,-999,0.0,0.0,91,0.00,,,-99.99,FreeWX 2.04,2013-10-12 10:26:00,
2013-10-12 05:31:00,77.5,74.7,29.85,North,-999,0.0,0.0,91,0.00,,,-99.99,FreeWX 2.04,2013-10-12 10:31:00,
2013-10-12 05:36:00,77.4,74.5,29.85,North,-999,0.0,0.0,91,0.00,,,-99.99,FreeWX 2.04,2013-10-12 10:36:00,
2013-10-12 05:41:00,77.4,74.5,29.85,North,-999,0.0,0.0,91,0.00,,,-99.99,FreeWX 2.04,2013-10-12 10:41:00,
2013-10-12 05:46:00,77.5,74.7,29.88,North,-999,0.0,0.0,91,0.00,,,-99.99,FreeWX 2.04,2013-10-12 10:46:00,
2013-10-12 05:51:00,77.5,74.7,29.88,North,-999,0.0,0.0,91,0.00,,,-99.99,FreeWX 2.04,2013-10-12 10:51:00,
2013-10-12 05:56:00,77.4,74.5,29.88,North,-999,0.0,0.0,91,0.00,,,-99.99,FreeWX 2.04,2013-10-12 10:56:00,
2013-10-12 06:01:00,77.4,74.5,29.88,North,-999,0.0,0.0,91,0.00,,,-99.99,FreeWX 2.04,2013-10-12 11:01:00,
2013-10-12 06:06:00,77.4,74.5,29.88,North,-999,0.0,0.0,91,0.00,,,-99.99,FreeWX 2.04,2013-10-12 11:06:00,
2013-10-12 06:11:00,77.4,74.5,29.88,North,-999,0.0,0.0,91,0.00,,,-99.99,FreeWX 2.04,2013-10-12 11:11:00,
2013-10-12 06:16:00,77.4,74.5,29.88,North,-999,0.0,0.0,91,0.00,,,-99.99,FreeWX 2.04,2013-10-12 11:16:00,
2013-10-12 06:21:00,77.5,74.7,29.88,North,-999,0.0,0.0,91,0.00,,,-99.99,FreeWX 2.04,2013-10-12 11:21:00,
2013-10-12 06:26:00,77.4,74.5,29.88,North,-999,0.0,0.0,91,0.00,,,-99.99,FreeWX 2.04,2013-10-12 11:26:00,
2013-10-12 06:31:00,77.4,74.5,29.88,North,-999,0.0,0.0,91,0.00,,,-99.99,FreeWX 2.04,2013-10-12 11:31:00,
2013-10-12 06:36:00,77.4,74.5,29.88,North,-999,0.0,0.0,91,0.00,,,-99.99,FreeWX 2.04,2013-10-12 11:36:00,
2013-10-12 06:41:00,77.4,74.5,29.88,North,-999,0.0,0.0,91,0.00,,,-99.99,FreeWX 2.04,2013-10-12 11:41:00,
2013-10-12 06:46:00,77.2,74.3,29.88,North,-999,0.0,0.0,91,0.00,,,-99.99,FreeWX 2.04,2013-10-12 11:46:00,
2013-10-12 06:51:00,77.2,74.3,29.88,North,-999,0.0,0.0,91,0.00,,,-99.99,FreeWX 2.04,2013-10-12 11:51:00,
2013-10-12 06:56:00,77.4,74.5,29.88,North,-999,0.0,0.0,91,0.00,,,-99.99,FreeWX 2.04,2013-10-12 11:56:00,
2013-10-12 07:01:00,77.4,74.5,29.88,North,-999,0.0,0.0,91,0.00,,,-99.99,FreeWX 2.04,2013-10-12 12:01:00,
2013-10-12 07:06:00,77.4,74.5,29.88,North,-999,0.0,0.0,91,0.00,,,-99.99,FreeWX 2.04,2013-10-12 12:06:00,
2013-10-12 07:11:00,77.4,74.5,29.88,North,-999,0.0,0.0,91,0.00,,,-99.99,FreeWX 2.04,2013-10-12 12:11:00,
2013-10-12 07:16:00,77.5,74.7,29.88,North,-999,0.0,0.0,91,0.00,,,-99.99,FreeWX 2.04,2013-10-12 12:16:00,
2013-10-12 07:21:00,77.5,74.7,29.88,North,-999,0.0,0.0,91,0.00,,,-99.99,FreeWX 2.04,2013-10-12 12:21:00,
2013-10-12 07:26:00,77.5,74.7,29.88,North,-999,0.0,0.0,91,0.00,,,-99.99,FreeWX 2.04,2013-10-12 12:26:00,
2013-10-12 07:31:00,77.5,74.7,29.88,North,-999,0.0,0.0,91,0.00,,,-99.99,FreeWX 2.04,2013-10-12 12:31:00,
2013-10-12 07:36:00,77.5,74.7,29.88,North,-999,0.0,0.0,91,0.00,,,-99.99,FreeWX 2.04,2013-10-12 12:36:00,
2013-10-12 07:41:00,77.5,74.7,29.88,North,-999,0.0,0.0,91,0.00,,,-99.99,FreeWX 2.04,2013-10-12 12:41:00,
2013-10-12 07:46:00,77.5,74.7,29.91,North,-999,0.0,0.0,91,0.00,,,-99.99,FreeWX 2.04,2013-10-12 12:46:00,
2013-10-12 07:51:00,77.7,74.8,29.91,North,-999,0.0,0.0,91,0.00,,,-99.99,FreeWX 2.04,2013-10-12 12:51:00,
2013-10-12 07:56:00,77.7,74.8,29.91,North,-999,0.0,0.0,91,0.00,,,-99.99,FreeWX 2.04,2013-10-12 12:56:00,
2013-10-12 08:01:00,77.7,74.8,29.91,North,-999,0.0,0.0,91,0.00,,,-99.99,FreeWX 2.04,2013-10-12 13:01:00,
2013-10-12 08:06:00,77.7,74.8,29.91,North,-999,0.0,0.0,91,0.00,,,-99.99,FreeWX 2.04,2013-10-12 13:06:00,
2013-10-12 08:11:00,77.9,75.0,29.91,North,-999,0.0,0.0,91,0.00,,,-99.99,FreeWX 2.04,2013-10-12 13:11:00,
2013-10-12 08:16:00,77.9,75.0,29.91,North,-999,0.0,0.0,91,0.00,,,-99.99,FreeWX 2.04,2013-10-12 13:16:00,
2013-10-12 08:21:00,77.9,75.0,29.91,North,-999,0.0,0.0,91,0.00,,,-99.99,FreeWX 2.04,2013-10-12 13:21:00,
2013-10-12 08:26:00,78.1,75.2,29.91,North,-999,0.0,0.0,91,0.00,,,-99.99,FreeWX 2.04,2013-10-12 13:26:00,
2013-10-12 08:31:00,78.1,75.2,29.91,North,-999,0.0,0.0,91,0.00,,,-99.99,FreeWX 2.04,2013-10-12 13:31:00,
2013-10-12 08:36:00,78.1,75.2,29.91,North,-999,0.0,0.0,91,0.00,,,-99.99,FreeWX 2.04,2013-10-12 13:36:00,
2013-10-12 08:41:00,78.1,75.2,29.91,North,-999,0.0,0.0,91,0.00,,,-99.99,FreeWX 2.04,2013-10-12 13:41:00,
2013-10-12 08:46:00,78.3,75.4,29.91,North,-999,0.0,0.0,91,0.00,,,-99.99,FreeWX 2.04,2013-10-12 13:46:00,
2013-10-12 08:51:00,78.4,75.6,29.91,North,-999,0.0,0.0,91,0.00,,,-99.99,FreeWX 2.04,2013-10-12 13:51:00,
2013-10-12 08:56:00,78.6,75.7,29.91,North,-999,0.0,0.0,91,0.00,,,-99.99,FreeWX 2.04,2013-10-12 13:56:00,
2013-10-12 09:02:00,78.8,75.9,29.94,North,-999,0.0,0.0,91,0.00,,,-99.99,FreeWX 2.04,2013-10-12 14:02:00,
2013-10-12 09:12:00,78.8,75.9,29.94,North,-999,0.0,0.0,91,0.00,,,-99.99,FreeWX 2.04,2013-10-12 14:12:00,
2013-10-12 09:17:00,79.0,76.1,29.94,North,-999,0.0,0.0,91,0.00,,,-99.99,FreeWX 2.04,2013-10-12 14:17:00,
2013-10-12 09:22:00,79.2,76.3,29.94,North,-999,0.0,0.0,91,0.00,,,-99.99,FreeWX 2.04,2013-10-12 14:22:00,
2013-10-12 09:27:00,79.5,76.6,29.94,North,-999,0.0,0.0,91,0.00,,,-99.99,FreeWX 2.04,2013-10-12 14:27:00,
2013-10-12 09:32:00,79.7,76.5,29.94,North,-999,0.0,0.0,90,0.00,,,-99.99,FreeWX 2.04,2013-10-12 14:32:00,
2013-10-12 09:37:00,80.1,76.8,29.94,North,-999,0.0,0.0,90,0.00,,,-99.99,FreeWX 2.04,2013-10-12 14:37:00,
2013-10-12 09:42:00,80.2,77.0,29.94,North,-999,0.0,0.0,90,0.00,,,-99.99,FreeWX 2.04,2013-10-12 14:42:00,
2013-10-12 09:47:00,80.6,77.4,29.94,North,-999,0.0,0.0,90,0.00,,,-99.99,FreeWX 2.04,2013-10-12 14:47:00,
2013-10-12 09:52:00,80.6,77.0,29.94,North,-999,0.0,0.0,89,0.00,,,-99.99,FreeWX 2.04,2013-10-12 14:52:00,
2013-10-12 09:57:00,80.8,77.2,29.94,North,-999,0.0,0.0,89,0.00,,,-99.99,FreeWX 2.04,2013-10-12 14:57:00,
2013-10-12 10:02:00,80.8,77.2,29.94,North,-999,0.0,0.0,89,0.00,,,-99.99,FreeWX 2.04,2013-10-12 15:02:00,
2013-10-12 10:07:00,81.0,77.0,29.94,North,-999,0.0,0.0,88,0.00,,,-99.99,FreeWX 2.04,2013-10-12 15:07:00,
2013-10-12 10:12:00,81.1,77.2,29.94,North,-999,0.0,0.0,88,0.00,,,-99.99,FreeWX 2.04,2013-10-12 15:12:00,
2013-10-12 10:17:00,81.1,76.8,29.94,North,-999,0.0,0.0,87,0.00,,,-99.99,FreeWX 2.04,2013-10-12 15:17:00,
2013-10-12 10:22:00,81.3,77.0,29.94,North,-999,0.0,0.0,87,0.00,,,-99.99,FreeWX 2.04,2013-10-12 15:22:00,
2013-10-12 10:27:00,81.7,77.4,29.94,North,-999,0.0,0.0,87,0.00,,,-99.99,FreeWX 2.04,2013-10-12 15:27:00,
2013-10-12 10:32:00,81.9,77.5,29.94,North,-999,0.0,0.0,87,0.00,,,-99.99,FreeWX 2.04,2013-10-12 15:32:00,
2013-10-12 10:37:00,82.2,77.9,29.94,North,-999,0.0,0.0,87,0.00,,,-99.99,FreeWX 2.04,2013-10-12 15:37:00,
2013-10-12 10:42:00,82.4,77.7,29.94,North,-999,0.0,0.0,86,0.00,,,-99.99,FreeWX 2.04,2013-10-12 15:42:00,
2013-10-12 10:47:00,82.8,77.7,29.94,North,-999,0.0,0.0,85,0.00,,,-99.99,FreeWX 2.04,2013-10-12 15:47:00,
2013-10-12 10:52:00,82.9,77.9,29.94,North,-999,0.0,0.0,85,0.00,,,-99.99,FreeWX 2.04,2013-10-12 15:52:00,
2013-10-12 10:57:00,83.1,77.7,29.94,North,-999,0.0,0.0,84,0.00,,,-99.99,FreeWX 2.04,2013-10-12 15:57:00,
2013-10-12 11:02:00,83.3,77.9,29.97,North,-999,0.0,0.0,84,0.00,,,-99.99,FreeWX 2.04,2013-10-12 16:02:00,
2013-10-12 11:07:00,83.7,77.9,29.97,North,-999,0.0,0.0,83,0.00,,,-99.99,FreeWX 2.04,2013-10-12 16:07:00,
2013-10-12 11:12:00,83.8,77.7,29.97,North,-999,0.0,0.0,82,0.00,,,-99.99,FreeWX 2.04,2013-10-12 16:12:00,
2013-10-12 11:17:00,83.8,77.7,29.97,North,-999,0.0,0.0,82,0.00,,,-99.99,FreeWX 2.04,2013-10-12 16:17:00,
2013-10-12 11:22:00,84.0,77.9,29.97,North,-999,0.0,0.0,82,0.00,,,-99.99,FreeWX 2.04,2013-10-12 16:22:00,
2013-10-12 11:27:00,84.2,77.7,29.97,North,-999,0.0,0.0,81,0.00,,,-99.99,FreeWX 2.04,2013-10-12 16:27:00,
2013-10-12 11:32:00,84.6,77.7,29.97,North,-999,0.0,0.0,80,0.00,,,-99.99,FreeWX 2.04,2013-10-12 16:32:00,
2013-10-12 11:37:00,84.7,77.5,29.97,North,-999,0.0,0.0,79,0.00,,,-99.99,FreeWX 2.04,2013-10-12 16:37:00,
2013-10-12 11:42:00,84.9,77.2,29.97,North,-999,0.0,0.0,78,0.00,,,-99.99,FreeWX 2.04,2013-10-12 16:42:00,
2013-10-12 11:47:00,84.7,76.6,29.97,North,-999,0.0,0.0,77,0.00,,,-99.99,FreeWX 2.04,2013-10-12 16:47:00,
2013-10-12 11:52:00,84.7,76.3,29.97,North,-999,0.0,0.0,76,0.00,,,-99.99,FreeWX 2.04,2013-10-12 16:52:00,
2013-10-12 11:57:00,84.9,76.5,29.97,North,-999,0.0,0.0,76,0.00,,,-99.99,FreeWX 2.04,2013-10-12 16:57:00,
2013-10-12 12:02:00,85.1,76.6,29.97,North,-999,0.0,0.0,76,0.00,,,-99.99,FreeWX 2.04,2013-10-12 17:02:00,
2013-10-12 12:07:00,84.9,76.1,29.97,North,-999,0.0,0.0,75,0.00,,,-99.99,FreeWX 2.04,2013-10-12 17:07:00,
2013-10-12 12:12:00,84.7,75.6,29.97,North,-999,0.0,0.0,74,0.00,,,-99.99,FreeWX 2.04,2013-10-12 17:12:00,
2013-10-12 12:17:00,84.7,75.9,29.97,North,-999,0.0,0.0,75,0.00,,,-99.99,FreeWX 2.04,2013-10-12 17:17:00,
2013-10-12 12:22:00,84.7,75.9,29.97,North,-999,0.0,0.0,75,0.00,,,-99.99,FreeWX 2.04,2013-10-12 17:22:00,
2013-10-12 12:27:00,84.7,75.9,29.97,North,-999,0.0,0.0,75,0.00,,,-99.99,FreeWX 2.04,2013-10-12 17:27:00,
2013-10-12 12:32:00,84.7,75.9,29.97,North,-999,0.0,0.0,75,0.00,,,-99.99,FreeWX 2.04,2013-10-12 17:32:00,
2013-10-12 12:37:00,84.7,76.3,29.97,North,-999,0.0,0.0,76,0.00,,,-99.99,FreeWX 2.04,2013-10-12 17:37:00,
2013-10-12 12:42:00,84.9,76.5,29.97,North,-999,0.0,0.0,76,0.00,,,-99.99,FreeWX 2.04,2013-10-12 17:42:00,
2013-10-12 12:47:00,85.1,76.3,29.94,North,-999,0.0,0.0,75,0.00,,,-99.99,FreeWX 2.04,2013-10-12 17:47:00,
2013-10-12 12:52:00,85.1,76.3,29.94,North,-999,0.0,0.0,75,0.00,,,-99.99,FreeWX 2.04,2013-10-12 17:52:00,
2013-10-12 12:57:00,85.3,76.1,29.94,North,-999,0.0,0.0,74,0.00,,,-99.99,FreeWX 2.04,2013-10-12 17:57:00,
2013-10-12 13:02:00,85.5,76.6,29.94,North,-999,0.0,0.0,75,0.00,,,-99.99,FreeWX 2.04,2013-10-12 18:02:00,
2013-10-12 13:07:00,85.5,76.3,29.94,North,-999,0.0,0.0,74,0.00,,,-99.99,FreeWX 2.04,2013-10-12 18:07:00,
2013-10-12 13:12:00,85.5,76.3,29.94,North,-999,0.0,0.0,74,0.00,,,-99.99,FreeWX 2.04,2013-10-12 18:12:00,
2013-10-12 13:17:00,85.5,75.7,29.94,North,-999,0.0,0.0,73,0.00,,,-99.99,FreeWX 2.04,2013-10-12 18:17:00,
2013-10-12 13:22:00,85.6,75.9,29.94,North,-999,0.0,0.0,73,0.00,,,-99.99,FreeWX 2.04,2013-10-12 18:22:00,
2013-10-12 13:27:00,85.6,75.9,29.94,North,-999,0.0,0.0,73,0.00,,,-99.99,FreeWX 2.04,2013-10-12 18:27:00,
2013-10-12 13:32:00,85.6,75.6,29.94,North,-999,0.0,0.0,72,0.00,,,-99.99,FreeWX 2.04,2013-10-12 18:32:00,
2013-10-12 13:37:00,85.8,75.7,29.94,North,-999,0.0,0.0,72,0.00,,,-99.99,FreeWX 2.04,2013-10-12 18:37:00,
2013-10-12 13:42:00,86.0,75.6,29.94,North,-999,0.0,0.0,71,0.00,,,-99.99,FreeWX 2.04,2013-10-12 18:42:00,
2013-10-12 13:47:00,86.0,75.6,29.94,North,-999,0.0,0.0,71,0.00,,,-99.99,FreeWX 2.04,2013-10-12 18:47:00,
2013-10-12 13:52:00,85.8,75.4,29.94,North,-999,0.0,0.0,71,0.00,,,-99.99,FreeWX 2.04,2013-10-12 18:52:00,
2013-10-12 13:57:00,86.0,75.6,29.94,North,-999,0.0,0.0,71,0.00,,,-99.99,FreeWX 2.04,2013-10-12 18:57:00,
2013-10-12 14:02:00,85.8,75.4,29.91,North,-999,0.0,0.0,71,0.00,,,-99.99,FreeWX 2.04,2013-10-12 19:02:00,
2013-10-12 14:07:00,85.8,75.4,29.91,North,-999,0.0,0.0,71,0.00,,,-99.99,FreeWX 2.04,2013-10-12 19:07:00,
2013-10-12 14:12:00,85.8,75.4,29.91,North,-999,0.0,0.0,71,0.00,,,-99.99,FreeWX 2.04,2013-10-12 19:12:00,
2013-10-12 14:17:00,85.6,75.2,29.91,North,-999,0.0,0.0,71,0.00,,,-99.99,FreeWX 2.04,2013-10-12 19:17:00,
2013-10-12 14:22:00,85.5,75.0,29.91,North,-999,0.0,0.0,71,0.00,,,-99.99,FreeWX 2.04,2013-10-12 19:22:00,
2013-10-12 14:27:00,85.6,75.2,29.91,North,-999,0.0,0.0,71,0.00,,,-99.99,FreeWX 2.04,2013-10-12 19:27:00,
2013-10-12 14:32:00,85.8,75.4,29.91,North,-999,0.0,0.0,71,0.00,,,-99.99,FreeWX 2.04,2013-10-12 19:32:00,
2013-10-12 14:37:00,86.0,75.6,29.91,North,-999,0.0,0.0,71,0.00,,,-99.99,FreeWX 2.04,2013-10-12 19:37:00,
2013-10-12 14:42:00,86.0,75.6,29.91,North,-999,0.0,0.0,71,0.00,,,-99.99,FreeWX 2.04,2013-10-12 19:42:00,
2013-10-12 14:47:00,85.8,75.4,29.91,North,-999,0.0,0.0,71,0.00,,,-99.99,FreeWX 2.04,2013-10-12 19:47:00,
2013-10-12 14:52:00,85.6,74.7,29.91,North,-999,0.0,0.0,70,0.00,,,-99.99,FreeWX 2.04,2013-10-12 19:52:00,
2013-10-12 14:57:00,85.8,74.8,29.91,North,-999,0.0,0.0,70,0.00,,,-99.99,FreeWX 2.04,2013-10-12 19:57:00,
2013-10-12 15:02:00,85.8,74.8,29.91,North,-999,0.0,0.0,70,0.00,,,-99.99,FreeWX 2.04,2013-10-12 20:02:00,
2013-10-12 15:07:00,85.6,74.7,29.91,North,-999,0.0,0.0,70,0.00,,,-99.99,FreeWX 2.04,2013-10-12 20:07:00,
2013-10-12 15:12:00,85.5,74.1,29.91,North,-999,0.0,0.0,69,0.00,,,-99.99,FreeWX 2.04,2013-10-12 20:12:00,
2013-10-12 15:17:00,85.6,74.3,29.91,North,-999,0.0,0.0,69,0.00,,,-99.99,FreeWX 2.04,2013-10-12 20:17:00,
2013-10-12 15:22:00,85.8,74.5,29.91,North,-999,0.0,0.0,69,0.00,,,-99.99,FreeWX 2.04,2013-10-12 20:22:00,
2013-10-12 15:27:00,85.6,73.8,29.91,North,-999,0.0,0.0,68,0.00,,,-99.99,FreeWX 2.04,2013-10-12 20:27:00,
2013-10-12 15:32:00,85.3,73.6,29.91,North,-999,0.0,0.0,68,0.00,,,-99.99,FreeWX 2.04,2013-10-12 20:32:00,
2013-10-12 15:37:00,85.3,73.9,29.91,North,-999,0.0,0.0,69,0.00,,,-99.99,FreeWX 2.04,2013-10-12 20:37:00,
2013-10-12 15:42:00,85.5,74.1,29.91,North,-999,0.0,0.0,69,0.00,,,-99.99,FreeWX 2.04,2013-10-12 20:42:00,
2013-10-12 15:47:00,85.3,73.9,29.88,North,-999,0.0,0.0,69,0.00,,,-99.99,FreeWX 2.04,2013-10-12 20:47:00,
2013-10-12 15:52:00,85.3,73.9,29.88,North,-999,0.0,0.0,69,0.00,,,-99.99,FreeWX 2.04,2013-10-12 20:52:00,
2013-10-12 15:57:00,85.1,73.8,29.88,North,-999,0.0,0.0,69,0.00,,,-99.99,FreeWX 2.04,2013-10-12 20:57:00,
2013-10-12 16:08:00,85.3,73.9,29.88,North,-999,0.0,0.0,69,0.00,,,-99.99,FreeWX 2.04,2013-10-12 21:08:00,
2013-10-12 16:13:00,85.1,73.8,29.88,North,-999,0.0,0.0,69,0.00,,,-99.99,FreeWX 2.04,2013-10-12 21:13:00,
2013-10-12 16:18:00,84.9,73.9,29.88,North,-999,0.0,0.0,70,0.00,,,-99.99,FreeWX 2.04,2013-10-12 21:18:00,
2013-10-12 16:23:00,85.1,74.1,29.88,North,-999,0.0,0.0,70,0.00,,,-99.99,FreeWX 2.04,2013-10-12 21:23:00,
2013-10-12 16:28:00,85.1,74.1,29.88,North,-999,0.0,0.0,70,0.00,,,-99.99,FreeWX 2.04,2013-10-12 21:28:00,
2013-10-12 16:33:00,85.1,74.1,29.88,North,-999,0.0,0.0,70,0.00,,,-99.99,FreeWX 2.04,2013-10-12 21:33:00,
2013-10-12 16:38:00,84.9,74.5,29.88,North,-999,0.0,0.0,71,0.00,,,-99.99,FreeWX 2.04,2013-10-12 21:38:00,
2013-10-12 16:43:00,84.7,74.3,29.88,North,-999,0.0,0.0,71,0.00,,,-99.99,FreeWX 2.04,2013-10-12 21:43:00,
2013-10-12 16:48:00,84.7,74.3,29.88,North,-999,0.0,0.0,71,0.00,,,-99.99,FreeWX 2.04,2013-10-12 21:48:00,
2013-10-12 16:53:00,84.7,74.3,29.88,North,-999,0.0,0.0,71,0.00,,,-99.99,FreeWX 2.04,2013-10-12 21:53:00,
2013-10-12 16:58:00,84.7,74.3,29.88,North,-999,0.0,0.0,71,0.00,,,-99.99,FreeWX 2.04,2013-10-12 21:58:00,
2013-10-12 17:03:00,84.6,74.1,29.88,North,-999,0.0,0.0,71,0.00,,,-99.99,FreeWX 2.04,2013-10-12 22:03:00,
2013-10-12 17:08:00,84.6,74.5,29.88,North,-999,0.0,0.0,72,0.00,,,-99.99,FreeWX 2.04,2013-10-12 22:08:00,
2013-10-12 17:13:00,84.4,74.3,29.88,North,-999,0.0,0.0,72,0.00,,,-99.99,FreeWX 2.04,2013-10-12 22:13:00,
2013-10-12 17:18:00,84.4,74.3,29.88,North,-999,0.0,0.0,72,0.00,,,-99.99,FreeWX 2.04,2013-10-12 22:18:00,
2013-10-12 17:23:00,84.2,74.1,29.88,North,-999,0.0,0.0,72,0.00,,,-99.99,FreeWX 2.04,2013-10-12 22:23:00,
2013-10-12 17:28:00,84.0,74.5,29.88,North,-999,0.0,0.0,73,0.00,,,-99.99,FreeWX 2.04,2013-10-12 22:28:00,
2013-10-12 17:33:00,84.0,74.5,29.88,North,-999,0.0,0.0,73,0.00,,,-99.99,FreeWX 2.04,2013-10-12 22:33:00,
2013-10-12 17:38:00,83.8,74.7,29.88,North,-999,0.0,0.0,74,0.00,,,-99.99,FreeWX 2.04,2013-10-12 22:38:00,
2013-10-12 17:43:00,83.8,74.7,29.88,North,-999,0.0,0.0,74,0.00,,,-99.99,FreeWX 2.04,2013-10-12 22:43:00,
2013-10-12 17:48:00,83.7,74.5,29.88,North,-999,0.0,0.0,74,0.00,,,-99.99,FreeWX 2.04,2013-10-12 22:48:00,
2013-10-12 17:53:00,83.5,74.3,29.88,North,-999,0.0,0.0,74,0.00,,,-99.99,FreeWX 2.04,2013-10-12 22:53:00,
2013-10-12 17:58:00,83.7,74.8,29.88,North,-999,0.0,0.0,75,0.00,,,-99.99,FreeWX 2.04,2013-10-12 22:58:00,
2013-10-12 18:03:00,83.7,74.8,29.88,North,-999,0.0,0.0,75,0.00,,,-99.99,FreeWX 2.04,2013-10-12 23:03:00,
2013-10-12 18:08:00,83.5,74.7,29.88,North,-999,0.0,0.0,75,0.00,,,-99.99,FreeWX 2.04,2013-10-12 23:08:00,
2013-10-12 18:13:00,83.3,74.5,29.88,North,-999,0.0,0.0,75,0.00,,,-99.99,FreeWX 2.04,2013-10-12 23:13:00,
2013-10-12 18:18:00,83.1,74.7,29.88,North,-999,0.0,0.0,76,0.00,,,-99.99,FreeWX 2.04,2013-10-12 23:18:00,
2013-10-12 18:23:00,82.9,74.7,29.88,North,-999,0.0,0.0,76,0.00,,,-99.99,FreeWX 2.04,2013-10-12 23:23:00,
2013-10-12 18:28:00,82.9,74.7,29.88,North,-999,0.0,0.0,76,0.00,,,-99.99,FreeWX 2.04,2013-10-12 23:28:00,
2013-10-12 18:33:00,82.6,74.3,29.88,North,-999,0.0,0.0,76,0.00,,,-99.99,FreeWX 2.04,2013-10-12 23:33:00,
2013-10-12 18:38:00,82.4,74.5,29.88,North,-999,0.0,0.0,77,0.00,,,-99.99,FreeWX 2.04,2013-10-12 23:38:00,
2013-10-12 18:43:00,82.2,74.3,29.88,North,-999,0.0,0.0,77,0.00,,,-99.99,FreeWX 2.04,2013-10-12 23:43:00,
2013-10-12 18:48:00,82.0,74.5,29.88,North,-999,0.0,0.0,78,0.00,,,-99.99,FreeWX 2.04,2013-10-12 23:48:00,
2013-10-12 18:53:00,81.7,74.1,29.88,North,-999,0.0,0.0,78,0.00,,,-99.99,FreeWX 2.04,2013-10-12 23:53:00,
2013-10-12 18:58:00,81.3,73.8,29.88,North,-999,0.0,0.0,78,0.00,,,-99.99,FreeWX 2.04,2013-10-12 23:58:00,
2013-10-12 19:03:00,81.1,73.9,29.88,North,-999,0.0,0.0,79,0.00,,,-99.99,FreeWX 2.04,2013-10-13 00:03:00,
2013-10-12 19:08:00,81.1,74.3,29.88,North,-999,0.0,0.0,80,0.00,,,-99.99,FreeWX 2.04,2013-10-13 00:08:00,
2013-10-12 19:13:00,81.1,74.3,29.88,North,-999,0.0,0.0,80,0.00,,,-99.99,FreeWX 2.04,2013-10-13 00:13:00,
2013-10-12 19:18:00,81.1,74.7,29.91,North,-999,0.0,0.0,81,0.00,,,-99.99,FreeWX 2.04,2013-10-13 00:18:00,
2013-10-12 19:23:00,81.1,74.7,29.91,North,-999,0.0,0.0,81,0.00,,,-99.99,FreeWX 2.04,2013-10-13 00:23:00,
2013-10-12 19:28:00,81.1,74.7,29.91,North,-999,0.0,0.0,81,0.00,,,-99.99,FreeWX 2.04,2013-10-13 00:28:00,
2013-10-12 19:33:00,80.8,74.3,29.91,North,-999,0.0,0.0,81,0.00,,,-99.99,FreeWX 2.04,2013-10-13 00:33:00,
2013-10-12 19:38:00,80.8,74.3,29.91,North,-999,0.0,0.0,81,0.00,,,-99.99,FreeWX 2.04,2013-10-13 00:38:00,
2013-10-12 19:43:00,80.8,74.8,29.91,North,-999,0.0,0.0,82,0.00,,,-99.99,FreeWX 2.04,2013-10-13 00:43:00,
2013-10-12 19:48:00,80.8,74.3,29.91,North,-999,0.0,0.0,81,0.00,,,-99.99,FreeWX 2.04,2013-10-13 00:48:00,
2013-10-12 19:53:00,80.8,74.3,29.91,North,-999,0.0,0.0,81,0.00,,,-99.99,FreeWX 2.04,2013-10-13 00:53:00,
2013-10-12 19:58:00,80.6,74.7,29.91,North,-999,0.0,0.0,82,0.00,,,-99.99,FreeWX 2.04,2013-10-13 00:58:00,
2013-10-12 20:03:00,80.8,74.8,29.91,North,-999,0.0,0.0,82,0.00,,,-99.99,FreeWX 2.04,2013-10-13 01:03:00,
2013-10-12 20:08:00,80.8,74.8,29.91,North,-999,0.0,0.0,82,0.00,,,-99.99,FreeWX 2.04,2013-10-13 01:08:00,
2013-10-12 20:13:00,80.6,74.7,29.91,North,-999,0.0,0.0,82,0.00,,,-99.99,FreeWX 2.04,2013-10-13 01:13:00,
2013-10-12 20:18:00,80.6,74.7,29.94,North,-999,0.0,0.0,82,0.00,,,-99.99,FreeWX 2.04,2013-10-13 01:18:00,
2013-10-12 20:23:00,80.6,75.0,29.94,North,-999,0.0,0.0,83,0.00,,,-99.99,FreeWX 2.04,2013-10-13 01:23:00,
2013-10-12 20:28:00,80.6,75.0,29.94,North,-999,0.0,0.0,83,0.00,,,-99.99,FreeWX 2.04,2013-10-13 01:28:00,
2013-10-12 20:33:00,80.6,75.0,29.94,North,-999,0.0,0.0,83,0.00,,,-99.99,FreeWX 2.04,2013-10-13 01:33:00,
2013-10-12 20:38:00,80.6,75.4,29.94,North,-999,0.0,0.0,84,0.00,,,-99.99,FreeWX 2.04,2013-10-13 01:38:00,
2013-10-12 20:43:00,80.4,75.2,29.94,North,-999,0.0,0.0,84,0.00,,,-99.99,FreeWX 2.04,2013-10-13 01:43:00,
2013-10-12 20:48:00,80.2,75.0,29.94,North,-999,0.0,0.0,84,0.00,,,-99.99,FreeWX 2.04,2013-10-13 01:48:00,
2013-10-12 20:53:00,80.2,75.0,29.94,North,-999,0.0,0.0,84,0.00,,,-99.99,FreeWX 2.04,2013-10-13 01:53:00,
2013-10-12 20:58:00,80.4,75.6,29.94,North,-999,0.0,0.0,85,0.00,,,-99.99,FreeWX 2.04,2013-10-13 01:58:00,
2013-10-12 21:03:00,80.4,75.6,29.94,North,-999,0.0,0.0,85,0.00,,,-99.99,FreeWX 2.04,2013-10-13 02:03:00,
2013-10-12 21:08:00,80.2,75.4,29.94,North,-999,0.0,0.0,85,0.00,,,-99.99,FreeWX 2.04,2013-10-13 02:08:00,
2013-10-12 21:13:00,80.2,75.4,29.94,North,-999,0.0,0.0,85,0.00,,,-99.99,FreeWX 2.04,2013-10-13 02:13:00,
2013-10-12 21:18:00,80.2,75.4,29.94,North,-999,0.0,0.0,85,0.00,,,-99.99,FreeWX 2.04,2013-10-13 02:18:00,
2013-10-12 21:23:00,80.2,75.4,29.94,North,-999,0.0,0.0,85,0.00,,,-99.99,FreeWX 2.04,2013-10-13 02:23:00,
2013-10-12 21:28:00,80.1,75.2,29.94,North,-999,0.0,0.0,85,0.00,,,-99.99,FreeWX 2.04,2013-10-13 02:28:00,
2013-10-12 21:33:00,80.1,75.2,29.97,North,-999,0.0,0.0,85,0.00,,,-99.99,FreeWX 2.04,2013-10-13 02:33:00,
2013-10-12 21:38:00,80.1,75.2,29.97,North,-999,0.0,0.0,85,0.00,,,-99.99,FreeWX 2.04,2013-10-13 02:38:00,
2013-10-12 21:43:00,80.1,75.2,29.97,North,-999,0.0,0.0,85,0.00,,,-99.99,FreeWX 2.04,2013-10-13 02:43:00,
2013-10-12 21:48:00,80.1,75.2,29.97,North,-999,0.0,0.0,85,0.00,,,-99.99,FreeWX 2.04,2013-10-13 02:48:00,
2013-10-12 21:53:00,80.1,75.2,29.97,North,-999,0.0,0.0,85,0.00,,,-99.99,FreeWX 2.04,2013-10-13 02:53:00,
2013-10-12 21:58:00,80.1,75.2,29.97,North,-999,0.0,0.0,85,0.00,,,-99.99,FreeWX 2.04,2013-10-13 02:58:00,
2013-10-12 22:03:00,80.1,75.2,29.97,North,-999,0.0,0.0,85,0.00,,,-99.99,FreeWX 2.04,2013-10-13 03:03:00,
2013-10-12 22:08:00,80.1,75.2,29.97,North,-999,0.0,0.0,85,0.00,,,-99.99,FreeWX 2.04,2013-10-13 03:08:00,
2013-10-12 22:13:00,79.9,75.0,29.97,North,-999,0.0,0.0,85,0.00,,,-99.99,FreeWX 2.04,2013-10-13 03:13:00,
2013-10-12 22:18:00,79.9,75.0,29.97,North,-999,0.0,0.0,85,0.00,,,-99.99,FreeWX 2.04,2013-10-13 03:18:00,
2013-10-12 22:23:00,79.7,74.8,29.97,North,-999,0.0,0.0,85,0.00,,,-99.99,FreeWX 2.04,2013-10-13 03:23:00,
2013-10-12 22:28:00,79.7,74.8,29.97,North,-999,0.0,0.0,85,0.00,,,-99.99,FreeWX 2.04,2013-10-13 03:28:00,
2013-10-12 22:33:00,79.7,74.8,29.97,North,-999,0.0,0.0,85,0.00,,,-99.99,FreeWX 2.04,2013-10-13 03:33:00,
2013-10-12 22:39:00,79.7,74.8,29.97,North,-999,0.0,0.0,85,0.00,,,-99.99,FreeWX 2.04,2013-10-13 03:39:00,
2013-10-12 22:44:00,79.7,74.8,29.97,North,-999,0.0,0.0,85,0.00,,,-99.99,FreeWX 2.04,2013-10-13 03:44:00,
2013-10-12 22:49:00,79.7,74.8,29.97,North,-999,0.0,0.0,85,0.00,,,-99.99,FreeWX 2.04,2013-10-13 03:49:00,
2013-10-12 22:54:00,79.7,74.8,29.97,North,-999,0.0,0.0,85,0.00,,,-99.99,FreeWX 2.04,2013-10-13 03:54:00,
2013-10-12 22:59:00,79.7,74.8,29.97,North,-999,0.0,0.0,85,0.00,,,-99.99,FreeWX 2.04,2013-10-13 03:59:00,
2013-10-12 23:04:00,79.7,74.8,29.97,North,-999,0.0,0.0,85,0.00,,,-99.99,FreeWX 2.04,2013-10-13 04:04:00,
2013-10-12 23:09:00,79.7,74.8,29.97,North,-999,0.0,0.0,85,0.00,,,-99.99,FreeWX 2.04,2013-10-13 04:09:00,
2013-10-12 23:14:00,79.7,74.8,29.97,North,-999,0.0,0.0,85,0.00,,,-99.99,FreeWX 2.04,2013-10-13 04:14:00,
2013-10-12 23:19:00,79.5,75.0,29.97,North,-999,0.0,0.0,86,0.00,,,-99.99,FreeWX 2.04,2013-10-13 04:19:00,
2013-10-12 23:24:00,79.7,75.2,29.97,North,-999,0.0,0.0,86,0.00,,,-99.99,FreeWX 2.04,2013-10-13 04:24:00,
2013-10-12 23:29:00,79.7,75.2,29.97,North,-999,0.0,0.0,86,0.00,,,-99.99,FreeWX 2.04,2013-10-13 04:29:00,
2013-10-12 23:34:00,79.7,75.2,29.97,North,-999,0.0,0.0,86,0.00,,,-99.99,FreeWX 2.04,2013-10-13 04:34:00,
2013-10-12 23:39:00,79.7,75.2,29.97,North,-999,0.0,0.0,86,0.00,,,-99.99,FreeWX 2.04,2013-10-13 04:39:00,
2013-10-12 23:44:00,79.5,75.0,29.97,North,-999,0.0,0.0,86,0.00,,,-99.99,FreeWX 2.04,2013-10-13 04:44:00,
2013-10-12 23:49:00,79.5,75.0,29.97,North,-999,0.0,0.0,86,0.00,,,-99.99,FreeWX 2.04,2013-10-13 04:49:00,
2013-10-12 23:54:00,79.5,75.0,29.97,North,-999,0.0,0.0,86,0.00,,,-99.99,FreeWX 2.04,2013-10-13 04:54:00,
2013-10-12 23:59:00,79.3,74.8,29.97,North,-999,0.0,0.0,86,0.00,,,-99.99,FreeWX 2.04,2013-10-13 04:59:00,